Location: Blue Sky Observatory
(43.1153°N, 70.9036°W)
Time: 13:09:57
(UTC-04:00)

Daily predictions for brighter satellites

Satellite Brightness Start Highest point End
(mag) Time Altitude Azimuth Time Altitude Azimuth Time Altitude Azimuth
ARGOS 4.4 20:56:37 10° ESE 21:01:01 26° ENE 21:05:24 10° N
Cosmos 1538 Rocket 4.3 20:58:13 10° NNW 21:03:33 74° WSW 21:08:53 10° S
Cosmos 1680 Rocket 4.2 20:58:57 10° N 21:03:54 41° ENE 21:08:52 10° SE
Cosmos 923 Rocket 4.2 21:02:32 10° NNW 21:07:41 57° ENE 21:12:47 10° SE
CZ-2C R/B 1.0 21:07:50 10° S 21:09:24 36° W 21:11:00 10° NNW
CZ-4B R/B 4.4 21:08:14 10° NNE 21:12:58 32° E 21:17:36 10° SSE
Meteor 2-20 4.5 21:07:04 10° S 21:13:10 70° E 21:19:16 10° NNE
Cosmos 2058 4.2 21:10:14 10° SE 21:13:25 22° E 21:16:36 10° NE
Cosmos 2219 4.1 21:08:35 10° SSE 21:13:29 30° ESE 21:18:25 10° NE
H-2A R/B 2.5 21:12:47 10° S 21:17:17 71° WSW 21:21:50 10° NNW
Cosmos 1328 Rocket 4.4 21:15:42 10° NNW 21:20:02 53° W 21:24:21 10° S
Terra 3.8 21:17:52 10° E 21:20:40 16° ENE 21:23:26 10° NNE
Cosmos 2322 3.9 21:15:03 10° NNW 21:20:47 67° ENE 21:26:17 11° SE
USA 229 DEB 3.7 21:13:56 10° SSW 21:20:51 80° SE 21:27:52 10° NE
USA 229 3.7 21:14:03 10° SSW 21:20:57 79° ESE 21:27:59 10° NE
Cosmos 2237 Rocket 4.3 21:18:07 10° N 21:21:19 15° NE 21:24:30 10° ENE
Cosmos 1441 Rocket 3.7 21:19:21 10° SSW 21:23:06 62° WNW 21:26:50 10° N
Cosmos 2322 Rocket 3.3 21:19:45 10° NW 21:24:59 41° WSW 21:30:12 10° S
Cosmos 1726 3.8 21:22:46 10° NNE 21:25:38 20° ENE 21:28:05 12° ESE
Cosmos 773 Rocket 4.1 21:21:57 10° NNW 21:27:09 78° WSW 21:32:22 10° SSE
CZ-4 SHROUD 3.1 21:24:48 10° SSE 21:27:55 83° E 21:31:05 10° N
SL-16 R/B 3.5 21:29:48 10° NW 21:34:59 37° WSW 21:40:07 10° S
Cosmos 2360 Rocket 2.2 21:29:44 10° NNW 21:35:26 87° ENE 21:40:35 13° SSE
NOSS 3-1 (A) 4.2 21:35:49 10° S 21:40:46 29° ESE 21:46:08 10° NE
ATLAS CENTAUR R/B 4.0 21:38:51 10° W 21:40:49 13° WSW 21:42:44 10° SW
SL-23 DEB 3.9 21:35:57 10° WNW 21:41:18 86° NNE 21:43:59 17° ESE
Cosmos 1908 3.8 21:38:09 10° NNW 21:41:59 56° W 21:45:48 10° S
Aureole 3 4.4 21:43:43 10° S 21:50:36 82° E 21:56:06 10° N
MetOp-B 4.3 21:45:28 10° S 21:50:49 75° WSW 21:56:12 10° NNW
DELTA 2 R/B(2) 4.3 21:55:27 10° SW 21:57:11 31° SSE 21:57:18 31° SSE
Delta 2 Rocket 4.1 21:55:00 10° SW 21:57:43 22° S 21:58:00 21° SSE
Meteor 1-4 Rocket 3.7 21:54:39 10° N 21:58:04 31° ENE 21:59:48 21° ESE
Cosmos 2242 Rocket 4.3 21:54:51 10° N 21:59:04 39° ENE 22:01:35 21° SE
FALCON 9 R/B 4.4 21:27:47 10° WSW 21:59:04 57° S 22:06:46 10° ESE
Cosmos 1674 4.0 21:55:57 10° SSW 21:59:34 40° WNW 22:03:15 10° N
Envisat 4.2 21:54:54 10° SSW 21:59:36 38° W 22:04:20 10° NNW
SPOT 5 3.7 21:55:45 10° S 22:00:03 44° W 22:04:38 10° NNW
Cosmos 2227 Rocket 3.6 22:00:43 17° ESE 22:02:24 20° E 22:06:21 10° NE
ATLAS 2AS CENTAUR R/B 4.1 22:00:49 17° SE 22:03:37 21° ESE 22:09:08 10° ENE
SL-08 RB Rocket 3.6 22:02:37 20° SSE 22:05:41 76° ENE 22:10:11 10° N
Cosmos 1626 4.0 22:05:29 15° E 22:06:02 16° E 22:08:19 10° NE
DELTA 2 DEB (DPAF) 4.3 22:05:05 22° SSE 22:07:53 62° ENE 22:12:20 10° N
Cosmos 1300 2.6 22:04:50 10° N 22:08:42 88° E 22:11:00 23° S
Cosmos 2112 Rocket 4.3 22:03:40 10° NNW 22:08:52 64° WSW 22:12:50 17° S
Cosmos 2333 Rocket 3.3 22:04:07 10° N 22:09:21 34° NE 22:13:11 17° ESE
USA 245 3.1 22:10:34 23° SSW 22:11:50 43° WSW 22:14:09 10° NNW
Cosmos 1437 4.2 22:09:47 10° SW 22:12:51 36° WNW 22:15:57 10° N
Cosmos 2298 Rocket 4.1 22:07:58 12° S 22:12:53 62° ESE 22:18:09 10° NNE
SL-16 R/B 4.3 22:09:41 10° N 22:13:18 17° NE 22:16:55 10° E
DELTA 2 R/B (1) 4.1 22:08:25 10° W 22:13:34 41° SSW 22:16:24 24° SE
CARTOSAT-1 3.9 22:17:10 26° SE 22:19:19 53° ENE 22:23:32 10° N
Cosmos 2315 Rocket 4.4 22:13:56 10° NNW 22:20:02 61° W 22:25:34 13° S
COSMOS 2428 2.7 22:15:30 10° NNW 22:21:13 83° WSW 22:24:46 24° SSE
Cosmos 1937 Rocket 3.9 22:18:23 23° SSE 22:21:18 44° ESE 22:26:14 10° NNE
ATLAS 3B R/B 4.1 22:16:25 10° NNW 22:22:36 30° NE 22:28:27 10° E
Sich 1 3.0 22:20:01 20° S 22:23:03 83° E 22:27:29 10° N
Cosmos 1633 Rocket 3.0 22:21:04 21° S 22:23:55 80° E 22:28:19 10° N
YAOGAN 6 4.3 22:23:27 12° SSW 22:26:13 28° W 22:29:24 10° NW
NOSS 3-1 (C) 3.3 22:22:20 10° SSW 22:28:11 81° SE 22:34:45 10° NE
Cosmos 2297 Rocket 3.4 22:28:39 22° ESE 22:29:45 23° E 22:34:05 10° NE
CZ-4C R/B 3.1 22:29:16 33° S 22:30:41 73° WSW 22:34:09 10° NNW
Cosmos 1869 4.5 22:27:19 10° NNE 22:30:56 30° ENE 22:32:04 26° ESE
Cosmos 1455 3.1 22:28:01 10° N 22:31:33 35° ENE 22:32:31 30° ESE
H-2A R/B 2.1 22:29:35 26° SSE 22:32:40 81° ENE 22:38:08 10° NNW
Cosmos 990 Rocket 4.4 22:33:38 29° SSE 22:35:35 42° ESE 22:40:25 10° NNE
Cosmos 2219 Rocket 2.2 22:32:15 10° NNW 22:37:51 70° ENE 22:40:42 29° SE
Lacrosse 4 Rocket 3.8 22:37:31 10° N 22:40:25 17° NE 22:43:15 10° E
ARGOS 4.0 22:37:03 17° SSW 22:40:59 45° W 22:46:10 10° NNW
Landsat 7 4.0 22:39:24 26° S 22:41:59 65° WSW 22:46:45 10° NNW
Nadezhda 1 Rocket 3.9 22:43:18 10° N 22:49:25 80° E 22:52:38 30° SSE
Cosmos 292 Rocket 3.8 22:46:59 10° NNW 22:51:45 74° WSW 22:53:38 36° S
Cosmos 1980 3.8 22:47:31 10° NNW 22:53:10 67° ENE 22:55:44 33° SE
Spot 4 3.8 22:52:29 36° SSE 22:54:31 89° WSW 22:59:24 10° NNW
Cosmos 2219 4.4 22:52:00 10° SW 22:57:27 43° WNW 23:02:55 10° NNE
Terra 2.0 22:55:46 32° S 22:57:52 65° WSW 23:02:36 10° NNW
SAR-Lupe-2 3.7 22:57:19 48° SSW 22:58:07 64° WSW 23:01:41 10° NNW
COSMOS 2455 3.8 22:53:29 10° NNW 22:59:07 38° NE 23:02:41 20° ESE
Cosmos 1703 3.8 22:58:43 29° SW 23:00:28 55° W 23:04:20 10° N
Cosmos 1726 3.9 22:57:48 10° NNW 23:01:00 26° W 23:02:46 18° SW
Cosmos 1898 Rocket 4.0 22:56:18 12° SW 23:01:05 59° WNW 23:06:15 10° NNE
Cosmos 1745 Rocket 4.1 22:57:28 21° SSW 23:01:45 76° W 23:07:58 10° N
Cosmos 1271 Rocket 3.6 22:58:21 10° NNW 23:01:59 42° W 23:03:14 31° SW
Spot 2 4.4 22:59:46 10° NNE 23:04:56 84° WNW 23:07:28 30° SSW
Cosmos 2237 Rocket 2.2 23:00:38 10° NNW 23:06:22 78° ENE 23:08:42 37° SE
Cosmos 1346 3.1 23:07:04 76° NW 23:07:04 76° NW 23:10:00 10° N
Cosmos 1125 Rocket 4.2 23:06:14 33° ESE 23:07:05 35° E 23:11:53 10° NE
Cosmos 2082 3.7 23:07:21 33° S 23:09:56 68° ESE 23:15:38 10° NNE
Cosmos 1709 Rocket 4.1 23:07:48 35° SSE 23:10:15 58° E 23:16:13 10° NNE
CZ-4B R/B 3.9 23:10:23 13° ENE 23:10:50 13° ENE 23:12:25 10° NE
DMSP B5D2-2 4.4 23:06:44 10° N 23:11:55 65° WNW 23:15:09 23° SSW
Cosmos 1470 Rocket 3.9 23:11:47 33° SW 23:13:33 60° W 23:17:50 10° N
Cosmos 220 Rocket 4.5 23:12:13 26° SW 23:14:34 60° WNW 23:18:59 10° NNE
Cosmos 1933 Rocket 3.9 23:13:06 33° SSW 23:14:58 61° W 23:19:25 10° N
IGS 5A 4.3 23:14:41 32° SW 23:15:58 41° W 23:19:56 10° NNW
Cosmos 1703 Rocket 4.0 23:12:26 10° N 23:16:39 47° ENE 23:17:24 42° ESE
Cosmos 2221 Rocket 4.1 23:12:43 10° N 23:17:08 46° ENE 23:18:03 40° ESE
SeaSat 1 2.8 23:15:33 36° ESE 23:17:23 57° ENE 23:22:14 10° NNW
Okean 1-7 4.1 23:14:17 10° NNE 23:18:05 30° ENE 23:18:43 29° E
Cosmos 2360 Rocket 4.5 23:16:08 10° WNW 23:18:34 13° W 23:21:01 10° WSW
Cosmos 1933 3.5 23:18:07 10° N 23:22:07 58° E 23:22:33 54° ESE
NOSS 0 Rocket 4.3 23:25:06 10° NW 23:31:04 53° WSW 23:33:20 36° SSW
Cosmos 2181 Rocket 4.0 23:24:48 10° N 23:31:13 77° E 23:33:42 40° SSE
NOSS 3-1 (A) 4.2 23:25:25 10° WSW 23:31:15 53° NW 23:37:46 10° NNE
ASTEX 1 4.5 23:33:31 10° NNE 23:37:45 29° E 23:38:19 28° E
Cosmos 192 4.4 23:34:07 10° NNW 23:38:59 65° WSW 23:40:02 50° SSW
CZ-4C R/B 3.8 23:40:38 41° ENE 23:40:38 41° ENE 23:43:50 10° N
Cosmos 1626 3.5 23:40:11 29° WSW 23:41:08 33° WNW 23:44:36 10° N
Cosmos 2227 Rocket 2.6 23:42:28 24° SW 23:45:54 62° WNW 23:51:33 10° NNE
ERBS 3.0 23:51:23 52° NE 23:51:23 52° NE 23:54:07 10° NE
Cosmos 2333 Rocket 3.0 23:48:21 10° NW 23:53:39 39° WSW 23:55:11 33° SW
